| time (UTC) | temp F | wind direction | speed knots | gust knots | rain 1hr in | rain 24hr in | rain mn in | humidity % | barometer mb |
| 20260503181935 | 63 | 7 | 0.9 | 1.7 | 0.00 | 0.00 | 0.00 | 66 | 1014.2 |
| 20260503181432 | 62 | 113 | 0.9 | 0.9 | 0.00 | 0.00 | 0.00 | 69 | 1014.0 |
| 20260503180928 | 62 | 17 | 0.9 | 1.7 | 0.00 | 0.00 | 0.00 | 70 | 1014.0 |
| 20260503180427 | 62 | 353 | 3.5 | 5.2 | 0.00 | 0.00 | 0.00 | 71 | 1014.1 |
| 20260503175922 | 61 | 328 | 0.0 | 0.0 | 0.00 | 0.00 | 0.00 | 72 | 1014.0 |
| 20260503175420 | 61 | 313 | 0.9 | 1.7 | 0.00 | 0.00 | 0.00 | 72 | 1014.1 |
| 20260503174915 | 61 | 220 | 1.7 | 2.6 | 0.00 | 0.00 | 0.00 | 71 | 1014.2 |
| 20260503174414 | 61 | 300 | 1.7 | 3.5 | 0.00 | 0.00 | 0.00 | 71 | 1014.0 |
| 20260503173909 | 61 | 319 | 3.5 | 5.2 | 0.00 | 0.00 | 0.00 | 71 | 1014.1 |
| 20260503173405 | 61 | 37 | 1.7 | 1.7 | 0.00 | 0.00 | 0.00 | 71 | 1014.0 |
| 20260503172902 | 60 | 1 | 1.7 | 2.6 | 0.00 | 0.00 | 0.00 | 73 | 1014.2 |
| 20260503172400 | 60 | 227 | 2.6 | 2.6 | 0.00 | 0.00 | 0.00 | 74 | 1014.1 |
| 20260503171855 | 60 | 287 | 2.6 | 3.5 | 0.00 | 0.00 | 0.00 | 73 | 1014.0 |
| 20260503171353 | 59 | 332 | 1.7 | 2.6 | 0.00 | 0.00 | 0.00 | 76 | 1014.1 |
| 20260503170850 | 59 | 295 | 3.5 | 5.2 | 0.00 | 0.00 | 0.00 | 76 | 1014.0 |
| 20260503170346 | 59 | 14 | 3.5 | 5.2 | 0.00 | 0.00 | 0.00 | 77 | 1014.2 |
| 20260503150739 | 56 | 330 | 0.0 | 0.0 | 0.00 | 0.00 | 0.00 | 84 | 1013.5 |
| 20260503150235 | 55 | 300 | 0.9 | 0.9 | 0.00 | 0.00 | 0.00 | 85 | 1013.4 |
| 20260503140159 | 54 | 313 | 0.0 | 0.9 | 0.00 | 0.00 | 0.00 | 88 | 1012.7 |
| 20260503131129 | 54 | 307 | 1.7 | 2.6 | 0.00 | 0.00 | 0.00 | 89 | 1011.9 |
| 20260503130626 | 54 | 244 | 2.6 | 2.6 | 0.00 | 0.00 | 0.00 | 89 | 1011.8 |
| 20260503130124 | 54 | 309 | 0.9 | 0.9 | 0.00 | 0.00 | 0.00 | 89 | 1012.0 |
| 20260503110516 | 54 | 338 | 0.0 | 0.9 | 0.00 | 0.00 | 0.00 | 88 | 1011.8 |
| 20260503090356 | 54 | 292 | 0.9 | 1.7 | 0.00 | 0.00 | 0.00 | 87 | 1012.2 |
| 20260503081323 | 54 | 308 | 1.7 | 1.7 | 0.00 | 0.00 | 0.00 | 88 | 1012.9 |
| 20260503080820 | 54 | 319 | 1.7 | 1.7 | 0.00 | 0.00 | 0.00 | 88 | 1013.0 |
| 20260503080317 | 54 | 317 | 2.6 | 3.5 | 0.00 | 0.00 | 0.00 | 88 | 1012.8 |
| 20260503072753 | 54 | 20 | 0.9 | 0.9 | 0.00 | 0.00 | 0.00 | 87 | 1013.0 |
| 20260503072250 | 54 | 286 | 2.6 | 3.5 | 0.00 | 0.00 | 0.00 | 87 | 1012.9 |
| 20260503071746 | 54 | 270 | 1.7 | 2.6 | 0.00 | 0.00 | 0.00 | 87 | 1013.0 |
| 20260503071244 | 54 | 328 | 1.7 | 2.6 | 0.00 | 0.00 | 0.00 | 87 | 1012.9 |
| 20260503070740 | 54 | 359 | 1.7 | 3.5 | 0.00 | 0.00 | 0.00 | 87 | 1012.9 |
| 20260503070238 | 54 | 262 | 0.9 | 1.7 | 0.00 | 0.00 | 0.00 | 88 | 1012.9 |
| 20260503060157 | 55 | 307 | 1.7 | 1.7 | 0.00 | 0.00 | 0.00 | 87 | 1013.2 |
| 20260503054644 | 55 | 336 | 0.9 | 1.7 | 0.00 | 0.00 | 0.00 | 87 | 1013.7 |
| 20260503054141 | 55 | 278 | 2.6 | 2.6 | 0.00 | 0.00 | 0.00 | 87 | 1013.6 |
| 20260503053639 | 55 | 282 | 2.6 | 3.5 | 0.00 | 0.00 | 0.00 | 87 | 1013.6 |
| 20260503053138 | 55 | 265 | 5.2 | 7.0 | 0.00 | 0.00 | 0.00 | 87 | 1013.5 |
| 20260503052634 | 55 | 353 | 0.0 | 0.0 | 0.00 | 0.00 | 0.00 | 87 | 1013.7 |
| 20260503052130 | 55 | 21 | 0.0 | 0.9 | 0.00 | 0.00 | 0.00 | 87 | 1013.7 |
| 20260503051625 | 55 | 342 | 0.9 | 0.9 | 0.00 | 0.00 | 0.00 | 87 | 1013.6 |
| 20260503051124 | 55 | 355 | 0.9 | 1.7 | 0.00 | 0.00 | 0.00 | 87 | 1013.5 |
| 20260503050620 | 54 | 277 | 3.5 | 5.2 | 0.00 | 0.00 | 0.00 | 87 | 1013.4 |
| 20260503050117 | 54 | 325 | 1.7 | 2.6 | 0.00 | 0.00 | 0.00 | 87 | 1013.5 |
| 20260503045614 | 55 | 262 | 1.7 | 2.6 | 0.00 | 0.00 | 0.00 | 87 | 1013.3 |
| 20260503045111 | 55 | 9 | 0.0 | 0.9 | 0.00 | 0.00 | 0.00 | 87 | 1013.5 |
| 20260503044608 | 55 | 227 | 1.7 | 2.6 | 0.00 | 0.00 | 0.00 | 87 | 1013.5 |
| 20260503044105 | 55 | 298 | 0.9 | 1.7 | 0.00 | 0.00 | 0.00 | 87 | 1013.3 |
| 20260503043601 | 55 | 318 | 0.9 | 1.7 | 0.00 | 0.00 | 0.00 | 87 | 1013.6 |
| 20260503043058 | 55 | 302 | 1.7 | 2.6 | 0.00 | 0.00 | 0.00 | 87 | 1013.5 |
| 20260503042555 | 55 | 358 | 0.9 | 0.9 | 0.00 | 0.00 | 0.00 | 87 | 1013.6 |
| 20260503042051 | 55 | 323 | 2.6 | 3.5 | 0.00 | 0.00 | 0.00 | 87 | 1013.3 |
| 20260503041548 | 54 | 322 | 2.6 | 3.5 | 0.00 | 0.00 | 0.00 | 88 | 1013.4 |
| 20260503041046 | 54 | 274 | 0.9 | 0.9 | 0.00 | 0.00 | 0.00 | 88 | 1013.3 |
| 20260503040543 | 55 | 301 | 3.5 | 5.2 | 0.00 | 0.00 | 0.00 | 88 | 1013.3 |
| 20260503040040 | 55 | 293 | 1.7 | 2.6 | 0.00 | 0.00 | 0.00 | 88 | 1013.1 |
| 20260503035537 | 55 | 10 | 0.0 | 0.9 | 0.00 | 0.00 | 0.00 | 87 | 1013.2 |
| 20260503035035 | 55 | 9 | 0.0 | 1.7 | 0.00 | 0.00 | 0.00 | 87 | 1013.1 |
| 20260503034531 | 55 | 250 | 2.6 | 3.5 | 0.00 | 0.00 | 0.00 | 86 | 1013.1 |
| 20260503034029 | 55 | 278 | 3.5 | 3.5 | 0.00 | 0.00 | 0.00 | 86 | 1012.8 |
| 20260503033526 | 55 | 305 | 1.7 | 2.6 | 0.00 | 0.00 | 0.00 | 86 | 1013.0 |
| 20260503033024 | 55 | 309 | 2.6 | 2.6 | 0.00 | 0.00 | 0.00 | 86 | 1013.0 |
| 20260503032522 | 55 | 236 | 1.7 | 5.2 | 0.00 | 0.00 | 0.00 | 86 | 1012.8 |
| 20260503032019 | 55 | 264 | 2.6 | 2.6 | 0.00 | 0.00 | 0.00 | 86 | 1012.6 |
| 20260503031517 | 55 | 270 | 2.6 | 2.6 | 0.00 | 0.00 | 0.00 | 86 | 1012.8 |
| 20260503031014 | 55 | 227 | 2.6 | 3.5 | 0.00 | 0.00 | 0.00 | 85 | 1012.6 |
| 20260503030510 | 55 | 292 | 3.5 | 3.5 | 0.00 | 0.00 | 0.00 | 86 | 1012.7 |
| 20260503030008 | 55 | 334 | 1.7 | 1.7 | 0.00 | 0.00 | 0.00 | 86 | 1012.5 |
| 20260503025504 | 55 | 329 | 2.6 | 3.5 | 0.00 | 0.00 | 0.00 | 86 | 1012.7 |
| 20260503025002 | 55 | 313 | 2.6 | 5.2 | 0.00 | 0.00 | 0.00 | 86 | 1012.7 |
| 20260503024457 | 55 | 316 | 3.5 | 5.2 | 0.00 | 0.00 | 0.00 | 86 | 1012.7 |
| 20260503023955 | 55 | 294 | 3.5 | 6.1 | 0.00 | 0.00 | 0.00 | 85 | 1012.7 |
| 20260503023452 | 55 | 290 | 0.9 | 1.7 | 0.00 | 0.00 | 0.00 | 84 | 1012.8 |
| 20260503022949 | 55 | 337 | 2.6 | 3.5 | 0.00 | 0.00 | 0.00 | 84 | 1012.7 |
| 20260503022444 | 55 | 232 | 3.5 | 3.5 | 0.00 | 0.00 | 0.00 | 85 | 1012.8 |
| 20260503021940 | 55 | 276 | 4.3 | 5.2 | 0.00 | 0.00 | 0.00 | 86 | 1012.8 |
| 20260503021436 | 55 | 18 | 4.3 | 6.1 | 0.00 | 0.00 | 0.00 | 86 | 1012.5 |
| 20260503020934 | 56 | 277 | 1.7 | 1.7 | 0.00 | 0.00 | 0.00 | 85 | 1012.8 |
| 20260503020432 | 56 | 233 | 2.6 | 5.2 | 0.00 | 0.00 | 0.00 | 84 | 1012.7 |
| 20260503015928 | 56 | 276 | 3.5 | 6.1 | 0.00 | 0.00 | 0.00 | 84 | 1012.8 |
| 20260503015424 | 56 | 276 | 4.3 | 5.2 | 0.00 | 0.00 | 0.00 | 83 | 1012.6 |
| 20260503014920 | 56 | 292 | 3.5 | 5.2 | 0.00 | 0.00 | 0.00 | 83 | 1013.0 |
| 20260503014418 | 56 | 12 | 2.6 | 3.5 | 0.00 | 0.00 | 0.00 | 83 | 1012.5 |
| 20260503013916 | 56 | 319 | 0.9 | 0.9 | 0.00 | 0.00 | 0.00 | 84 | 1012.7 |
| 20260503013413 | 56 | 266 | 1.7 | 1.7 | 0.00 | 0.00 | 0.00 | 83 | 1012.8 |
| 20260503012910 | 57 | 273 | 2.6 | 3.5 | 0.00 | 0.00 | 0.00 | 82 | 1012.9 |
| 20260503012408 | 57 | 227 | 3.5 | 5.2 | 0.00 | 0.00 | 0.00 | 81 | 1012.8 |
| 20260503011904 | 57 | 4 | 0.9 | 0.9 | 0.00 | 0.00 | 0.00 | 81 | 1013.0 |
| 20260503011401 | 57 | 302 | 3.5 | 3.5 | 0.00 | 0.00 | 0.00 | 81 | 1013.1 |
| 20260503010857 | 57 | 285 | 3.5 | 6.1 | 0.00 | 0.00 | 0.00 | 81 | 1012.9 |
| 20260503010354 | 57 | 7 | 0.9 | 1.7 | 0.00 | 0.00 | 0.00 | 80 | 1013.0 |
| 20260503005851 | 57 | 298 | 1.7 | 1.7 | 0.00 | 0.00 | 0.00 | 80 | 1012.9 |
| 20260503005349 | 57 | 256 | 2.6 | 6.1 | 0.00 | 0.00 | 0.00 | 79 | 1013.0 |
| 20260503004845 | 58 | 298 | 2.6 | 2.6 | 0.00 | 0.00 | 0.00 | 78 | 1013.0 |
| 20260503004342 | 58 | 338 | 2.6 | 5.2 | 0.00 | 0.00 | 0.00 | 78 | 1013.1 |
| 20260503003840 | 58 | 359 | 2.6 | 6.1 | 0.00 | 0.00 | 0.00 | 78 | 1013.2 |
| 20260503003336 | 58 | 305 | 5.2 | 7.0 | 0.00 | 0.00 | 0.00 | 77 | 1013.2 |
| 20260503002833 | 58 | 279 | 1.7 | 1.7 | 0.00 | 0.00 | 0.00 | 77 | 1013.1 |
| 20260503002331 | 58 | 316 | 4.3 | 7.0 | 0.00 | 0.00 | 0.00 | 77 | 1013.2 |
| 20260503001827 | 59 | 278 | 0.9 | 1.7 | 0.00 | 0.00 | 0.00 | 76 | 1013.1 |
| 20260503001323 | 60 | 227 | 1.7 | 2.6 | 0.00 | 0.00 | 0.00 | 75 | 1013.1 |
| 20260503000821 | 60 | 341 | 0.9 | 1.7 | 0.00 | 0.00 | 0.00 | 75 | 1013.0 |
| 20260503000319 | 59 | 270 | 3.5 | 6.1 | 0.00 | 0.00 | 0.00 | 75 | 1013.0 |
| 20260502235815 | 60 | 28 | 0.9 | 0.9 | 0.00 | 0.00 | 0.00 | 75 | 1013.2 |
| 20260502235312 | 60 | 259 | 5.2 | 7.0 | 0.00 | 0.00 | 0.00 | 74 | 1013.2 |
| 20260502234809 | 61 | 281 | 5.2 | 7.0 | 0.00 | 0.00 | 0.00 | 73 | 1013.3 |
| 20260502234306 | 62 | 315 | 2.6 | 3.5 | 0.00 | 0.00 | 0.00 | 71 | 1013.1 |
| 20260502233802 | 61 | 304 | 3.5 | 5.2 | 0.00 | 0.00 | 0.00 | 73 | 1013.1 |
| 20260502233259 | 61 | 249 | 3.5 | 6.1 | 0.00 | 0.00 | 0.00 | 72 | 1013.3 |
| 20260502232755 | 62 | 6 | 0.9 | 1.7 | 0.00 | 0.00 | 0.00 | 72 | 1013.3 |
| 20260502232252 | 62 | 278 | 2.6 | 5.2 | 0.00 | 0.00 | 0.00 | 70 | 1013.5 |
| 20260502231748 | 63 | 279 | 5.2 | 7.0 | 0.00 | 0.00 | 0.00 | 69 | 1013.4 |
| 20260502231246 | 63 | 279 | 5.2 | 7.0 | 0.00 | 0.00 | 0.00 | 69 | 1013.4 |
| 20260502230745 | 64 | 319 | 2.6 | 2.6 | 0.00 | 0.00 | 0.00 | 67 | 1013.4 |
| 20260502230243 | 63 | 282 | 5.2 | 7.0 | 0.00 | 0.00 | 0.00 | 68 | 1013.5 |
| 20260502225739 | 63 | 14 | 2.6 | 3.5 | 0.00 | 0.00 | 0.00 | 68 | 1013.7 |
| 20260502225236 | 63 | 53 | 0.0 | 0.9 | 0.00 | 0.00 | 0.00 | 69 | 1013.9 |
| 20260502224732 | 63 | 0 | 4.3 | 6.1 | 0.00 | 0.00 | 0.00 | 68 | 1013.8 |
| 20260502224229 | 63 | 273 | 6.1 | 7.0 | 0.00 | 0.00 | 0.00 | 68 | 1013.9 |
| 20260502223726 | 64 | 282 | 3.5 | 7.0 | 0.00 | 0.00 | 0.00 | 68 | 1013.8 |
| 20260502223224 | 64 | 345 | 0.9 | 1.7 | 0.00 | 0.00 | 0.00 | 69 | 1013.8 |
| 20260502222722 | 64 | 215 | 1.7 | 2.6 | 0.00 | 0.00 | 0.00 | 68 | 1014.0 |
| 20260502222218 | 63 | 256 | 3.5 | 6.1 | 0.00 | 0.00 | 0.00 | 69 | 1013.9 |
| 20260502221714 | 63 | 285 | 4.3 | 6.1 | 0.00 | 0.00 | 0.00 | 70 | 1013.9 |
| 20260502221211 | 63 | 253 | 3.5 | 5.2 | 0.00 | 0.00 | 0.00 | 69 | 1014.1 |
| 20260502220707 | 62 | 292 | 5.2 | 7.0 | 0.00 | 0.00 | 0.00 | 71 | 1014.2 |
| 20260502220204 | 62 | 312 | 2.6 | 3.5 | 0.00 | 0.00 | 0.00 | 71 | 1014.2 |
| 20260502215701 | 62 | 286 | 6.1 | 7.8 | 0.00 | 0.00 | 0.00 | 72 | 1014.1 |
| 20260502215157 | 62 | 309 | 4.3 | 9.6 | 0.00 | 0.00 | 0.00 | 74 | 1014.2 |
| 20260502214655 | 63 | 296 | 3.5 | 5.2 | 0.00 | 0.00 | 0.00 | 73 | 1014.0 |
| 20260502214152 | 62 | 323 | 4.3 | 6.1 | 0.00 | 0.00 | 0.00 | 73 | 1013.9 |
| 20260502213649 | 63 | 315 | 5.2 | 7.8 | 0.00 | 0.00 | 0.00 | 72 | 1014.2 |
| 20260502213146 | 62 | 289 | 3.5 | 5.2 | 0.00 | 0.00 | 0.00 | 72 | 1014.2 |
| 20260502212645 | 62 | 278 | 6.1 | 9.6 | 0.00 | 0.00 | 0.00 | 74 | 1014.2 |
| 20260502212143 | 63 | 320 | 2.6 | 3.5 | 0.00 | 0.00 | 0.00 | 74 | 1014.2 |
| 20260502211638 | 62 | 34 | 0.9 | 1.7 | 0.00 | 0.00 | 0.00 | 75 | 1014.3 |
| 20260502211135 | 63 | 185 | 5.2 | 7.0 | 0.00 | 0.00 | 0.00 | 74 | 1014.2 |
| 20260502210633 | 62 | 223 | 4.3 | 7.8 | 0.00 | 0.00 | 0.00 | 74 | 1014.4 |
| 20260502210130 | 63 | 254 | 3.5 | 3.5 | 0.00 | 0.00 | 0.00 | 74 | 1014.5 |
| 20260502205626 | 63 | 288 | 2.6 | 3.5 | 0.00 | 0.00 | 0.00 | 74 | 1014.5 |
| 20260502205123 | 63 | 260 | 0.9 | 1.7 | 0.00 | 0.00 | 0.00 | 75 | 1014.4 |
| 20260502204620 | 61 | 292 | 2.6 | 2.6 | 0.00 | 0.00 | 0.00 | 77 | 1014.5 |
| 20260502204118 | 63 | 234 | 1.7 | 2.6 | 0.00 | 0.00 | 0.00 | 75 | 1014.5 |
| 20260502203615 | 62 | 284 | 1.7 | 2.6 | 0.00 | 0.00 | 0.00 | 77 | 1014.6 |
| 20260502203112 | 63 | 319 | 2.6 | 3.5 | 0.00 | 0.00 | 0.00 | 76 | 1014.7 |
| 20260502202607 | 61 | 266 | 2.6 | 2.6 | 0.00 | 0.00 | 0.00 | 79 | 1014.8 |
| 20260502202105 | 62 | 254 | 1.7 | 1.7 | 0.00 | 0.00 | 0.00 | 78 | 1014.7 |
| 20260502201556 | 62 | 262 | 0.9 | 1.7 | 0.00 | 0.00 | 0.00 | 78 | 1014.8 |
| 20260502201052 | 63 | 280 | 1.7 | 2.6 | 0.00 | 0.00 | 0.00 | 76 | 1015.0 |
| 20260502200547 | 62 | 278 | 2.6 | 7.0 | 0.00 | 0.00 | 0.00 | 79 | 1014.8 |
| 20260502200041 | 62 | 279 | 5.2 | 7.0 | 0.00 | 0.00 | 0.00 | 78 | 1014.9 |
| 20260502195538 | 62 | 278 | 1.7 | 2.6 | 0.00 | 0.00 | 0.00 | 78 | 1014.6 |
| 20260502195034 | 63 | 268 | 3.5 | 6.1 | 0.00 | 0.00 | 0.00 | 76 | 1014.7 |
| 20260502194530 | 62 | 357 | 5.2 | 7.0 | 0.00 | 0.00 | 0.00 | 78 | 1014.9 |
| 20260502194026 | 63 | 339 | 2.6 | 3.5 | 0.00 | 0.00 | 0.00 | 77 | 1014.7 |
| 20260502193524 | 62 | 315 | 3.5 | 6.1 | 0.00 | 0.00 | 0.00 | 78 | 1014.9 |
| 20260502193021 | 62 | 318 | 5.2 | 7.0 | 0.00 | 0.00 | 0.00 | 77 | 1014.5 |
| 20260502192516 | 62 | 345 | 3.5 | 5.2 | 0.00 | 0.00 | 0.00 | 78 | 1014.6 |
| 20260502192014 | 62 | 335 | 0.9 | 0.9 | 0.00 | 0.00 | 0.00 | 79 | 1014.8 |
| 20260502191511 | 62 | 271 | 3.5 | 6.1 | 0.00 | 0.00 | 0.00 | 78 | 1014.9 |
| 20260502191009 | 62 | 273 | 2.6 | 3.5 | 0.00 | 0.00 | 0.00 | 78 | 1014.8 |
| 20260502190506 | 62 | 286 | 1.7 | 3.5 | 0.00 | 0.00 | 0.00 | 77 | 1014.8 |
| 20260502190003 | 63 | 297 | 3.5 | 5.2 | 0.00 | 0.00 | 0.00 | 75 | 1014.6 |
| 20260502185458 | 63 | 350 | 0.9 | 1.7 | 0.00 | 0.00 | 0.00 | 76 | 1014.6 |
| 20260502184954 | 62 | 351 | 1.7 | 1.7 | 0.00 | 0.00 | 0.00 | 78 | 1014.7 |
| 20260502184450 | 63 | 329 | 0.0 | 0.0 | 0.00 | 0.00 | 0.00 | 76 | 1014.6 |
| 20260502183947 | 63 | 281 | 1.7 | 2.6 | 0.00 | 0.00 | 0.00 | 76 | 1014.7 |
| 20260502183443 | 61 | 348 | 3.5 | 3.5 | 0.00 | 0.00 | 0.00 | 78 | 1014.8 |
| 20260502182938 | 62 | 7 | 3.5 | 3.5 | 0.00 | 0.00 | 0.00 | 77 | 1014.6 |
| 20260502182434 | 62 | 12 | 4.3 | 5.2 | 0.00 | 0.00 | 0.00 | 76 | 1014.6 |